Location: Unspecified
(44.4377°N, 88.0525°W)
Time: 19:44:43
(UTC-05:00)

Okean 3 - Pass Details

Date: 27 April 2019
Orbit: 576 x 602 km, 82.5° (Epoch: 20 May)

Event Time Altitude Azimuth Distance (km) Brightness Sun altitude
Exits shadow 00:06:39 11° 51° (NE) 1,855 6.3 -31.0°
Drops below altitude 10° 00:06:55 10° 48° (NE) 1,916 6.4 -31.0°
Sets 00:09:50 0° 27° (NNE) 2,817 7.6 -31.1°
